Погода в Смоленске

Погода в Смоленске : погода сейчас, прогноз погоды и архив. Всё, что Вы хотите узнать о погоде в Смоленске!

Хотите узнать прогноз погоды в Смоленске? Тогда Вам сюда: Погода в Смоленске

Поиск расширенной информации на нашем сайте:

Другие новости

Новости СМИ2

Главная страница сайта

Новости сайта

03.07.2017

Напоминаем, что на нашем специализированном сайте Метеоцентр.Азия вы можете получить высокодетализированные автоматические прогнозы погоды по пунктам России, СНГ и мира в авиационном формате (включающие направление и скорость ветра, видимость, явления погоды, количество и форму облачности, нижнюю и верхнюю границу облачности).

Рекомендуем: белый кот

Погода в Смоленске - сегодня

Время (UTC), дата Ветер
(°,м/с) 
Видим.   Явления Облачность Т
(°С)
Тd
(°С)
f(%) Тe
(°С)
Pmin
(гПа)
dP
(гПа)
Po
(мм)
O2
(г/м3)
Тmin Tmax R s Состояние
почвы
00 13.02.18 090 (В) 10 км    ясно 
-10 -12.2 84 -13  1021.4  0.6  743  312           
09 13.02.18 100 (В) 20000 м    ясно 
-9.7 -13.1 76 -11  1023.7  744  312           
12 13.02.18 090 (В) 20000 м    ясно 
-6.3 -12.1 63 -8  1023  -0.3  744  308           
15 13.02.18 090 (В) 20000 м    1/0 верхняя 
[Ci fib]
-5.6 -10.3 69 -8  1022.8  744  307           
21 13.02.18 090 (В) 10 км    ясно 
-9.5 -11.8 83 -12  1024.5  0.2  745  312           
00 14.02.18 090 (В) 10 км    9/0 верхняя 
[Ci]
-11 -12.7 87 -14  1025.1  0.4  745  314           
03 14.02.18 080 (В) 10 км    9/0 верхняя 
[Ci]
-10.9 -12.5 88 -14  1025.3  0.2  745  314  -11.3         
06 14.02.18 080 (В) 4000 м  дымка  9/0 верхняя 
[Ci]
-11.8 -13.1 90 -15  1026.1  0.7  746  315  -11.8      25  равномерный
сухой снег
100% 
09 14.02.18 100 (В) 4000 м  слаб. снег  10/0 средняя 
[As op]
-9.8 -12.3 82 -14  1026.9  747  313           
21 14.02.18 090 (В) 4000 м  слаб. снег  10/10 200 м 
[Frnb|Ns]
-8.7 -9.8 92 -10  1029.7  0.8  749  313           
00 15.02.18 090 (В) 4000 м  слаб. снег  н/о 
-8.7 -9.8 92 -10  1030.3  0.6  749  313           
03 15.02.18 090 (В) 4000 м  слаб. снег  10/10 200 м 
[Frnb|Ns]
-8.6 -9.9 90 -10  1030.8  0.4  750  313  -8.8    0.6     
06 15.02.18 100 (В) 4000 м  слаб. снег  10/10 300 м 
[Frnb|Ns]
-8.8 -10.3 89 -12  1031.4  0.6  750  313  -8.8    0.6  25  равномерный
сухой снег
100% 
09 15.02.18 100 (В) 4000 м  слаб. снег  10/10 300 м 
[Frnb|Ns]
-7.9 -10.1 84 -11  1032.1  0.7  751  312           
21 15.02.18 130 (ЮВ) 10 км    10/10 600 м 
[Sc]
-5.9 -7.3 90 -7  1031.5  -0.5  750  310           
00 16.02.18 140 (ЮВ) 10 км    10/10 600 м 
[Sc]
-5.5 -6.7 91 -5  1031.1  -0.3  750  309           
03 16.02.18 140 (ЮВ) 4000 м  слаб. снег  10/10 300 м 
[Frnb|Ns]
-5.4 -6.3 93 -7  1030.4  -0.7  750  309  -6.2    0.2     
06 16.02.18 140 (ЮВ) 2000 м  слаб. снег  10/10 300 м 
[Ns]
-5.1 -5.7 96 -6  1029.9  -0.4  749  308  -6.1    0.6  25  равномерный
сухой снег
100% 
09 16.02.18 150 (ЮВ) 10 км  {снег}  10/10 300 м 
[Sc]
-3.7 -5.6 87 -5  1028.9  -0.8  749  306           
21 16.02.18 150 (ЮВ) 10 км  в посл. час ливневой снег  10/10 300 м кучево-дожд. 
[Cb cap]
-3.5 -4.1 96 -5  1025.5  -0.8  746  305           
03 17.02.18 140 (ЮВ) 4000 м  слаб. ливневой снег  10/10 300 м кучево-дожд. 
[Cb cap]
-3.1 -3.6 96 -4  1023.2  -1.1  745  304  -3.7       
06 17.02.18 150 (ЮВ) 4000 м  слаб. ливневой снег  10/10 300 м кучево-дожд. 
[Cb cap]
-3.4 -3.9 96 -5  1022.6  -0.6  744  304  -3.6    28  равномерный
сухой снег
100% 
09 17.02.18 150 (ЮВ) 4000 м  слаб. ливневой снег  10/10 300 м кучево-дожд. 
[Cb cap]
-2.2 -3.2 93 -4  1021.7  -0.7  744  302           
15 17.02.18 170 (Ю) 10 км    10/10 300 м 
[Sc]
-1.3 -2.7 90 -1  1020  -0.4  742  301         
21 17.02.18 140 (ЮВ) 2000 м  слаб. снег  10/10 200 м 
[Frnb|Ns]
-2.3 -2.7 97 -3  1018.8  -0.8  741  302           
Время (UTC), дата Ветер
(°,м/с) 
Видим.   Явления Облачность Т
(°С)
Тd
(°С)
f(%) Тe
(°С)
Pmin
(гПа)
dP
(гПа)
Po
(мм)
O2
(г/м3)
Тmin Tmax R s Состояние
почвы

Для получения пояснительной информации подведите курсор к названию столбца.

ПОГОДА в Смоленске - архив

Всё, что Вы хотите узнать о погоде в Смоленске - удобно и подробно!

Выберите нужную дату (начиная с 1 января 2015* года) и нажмите кнопку "Найти".
Будут отображены архивные сводки погоды по пункту Смоленск, начиная с указанной даты.


Отображать данные в формате CSV (для использования в таблицах Excel)


Внимание! Наш архив погоды предназначен исключительно для личного некоммерческого использования в познавательных целях. Если Вам необходимы официальные справки о состоянии погоды (для производственных, юридических, коммерческих и т.п. целей), обращайтесь в органы Росгидромета.

*Примечание: данная дата относится к архиву по метеостанциям СССР (Россия, СНГ, Балтия).
Архив по метеостанциям Зарубежной Европы и Азии (кроме Китая) хранится 10 дней, по другим регионам земного шара (Китай, Африка, Америка, Австралия, Океания) - 1 день.

Смоленск - район местоположения метеостанции


Название, широта, долгота, высота метеостанции:
Смоленск 54.8°ш. 32.1°д. 239 м над ур. моря [Российская Федерация]

Дополнительная информация

В oтличие oт бoльшинства пoгoдных сайтoв мы публикуем пoдрoбную метеoинфoрмацию в детальнoм прoфессиoнальнoм фoрмате.

Характеристики температуры и влажнoсти вoздуха измеряются на высoте 2 м в тени вдали oт зданий и деревьев.
Скoрoсть ветра измеряется на высoте 10 м (на урoвне рoста челoвека скoрoсть ветра ниже в 1.5-2 раза). Если метеoстанция нахoдится в гoрoде или в лесу, тo скoрoсть ветра занижена на 2-4 м/с пo сравнению с oткрытым местoм. Скoрoсть ветра над акватoриями крупных рек и oзёр, а также на вершинах хoлмoв на 2-5 м/с выше, чем в oбычных услoвиях.
Атмoсфернoе давление в разных тoчках местнoсти мoжет значительнo oтличаться oт давления на метеoстанции, в зависимoсти oт услoвий рельефа (при пoдъёме на 10 м давление пoнижается примернo на 1 мм рт.ст.).